Location: Kapla
(46.2483°N, 15.0094°E)
Time: 15:06:32
(UTC+00:00)

BREEZE-M DEB (TANK) - Pass Details

Date: 03 March 2021
Orbit: 351 x 16374 km, 49.4° (Epoch: 14 April)

Event Time Altitude Azimuth Distance (km) Brightness Sun altitude
Rises 17:15:44 0° 222° (SW) 6,079 8.4 -5.4°
Reaches altitude 10° 17:21:33 10° 215° (SW) 3,486 7.0 -6.4°
Maximum altitude 17:27:26 31° 155° (SSE) 1,131 3.7 -7.4°
Enters shadow 17:30:05 11° 90° (E) 1,526 3.9 -7.9°
